Total_Precipitation_Accumulation
0.01 0.00 0.00 0.00 0.01 0.00 0.01 0.01 0.01 0.01 0.02 0.03 0.04 0.04 0.04 0.04 0.04 0.03 0.03 0.04 0.07 0.14 0.19 0.19 0.19 0.23 0.24 0.24 0.20 0.14 0.10 0.07 0.05 0.04 0.03 0.02 0.03 0.04 0.05 0.04 0.03 0.03 0.00
0.01 0.00 0.00 0.01 0.01 0.01 0.01 0.01 0.01 0.01 0.01 0.02 0.02 0.02 0.02 0.02 0.04 0.06 0.05 0.06 0.11 0.15 0.16 0.17 0.19 0.19 0.18 0.17 0.13 0.08 0.05 0.03 0.02 0.02 0.03 0.07 0.17 0.17 0.12 0.11 0.10 0.08 0.00
0.00 0.00 0.00 0.01 0.01 0.01 0.01 0.01 0.01 0.01 0.01 0.02 0.02 0.01 0.02 0.02 0.03 0.06 0.08 0.10 0.14 0.16 0.13 0.13 0.15 0.14 0.11 0.07 0.04 0.02 0.01 0.00 0.00 0.02 0.07 0.17 0.32 0.27 0.16 0.15 0.16 0.11 0.03
0.00 0.00 0.00 0.00 0.01 0.00 0.00 0.00 0.01 0.01 0.01 0.03 0.05 0.04 0.03 0.03 0.04 0.06 0.08 0.10 0.13 0.12 0.10 0.09 0.09 0.08 0.04 0.02 0.02 0.01 0.00 0.00 0.00 0.03 0.08 0.17 0.34 0.38 0.24 0.18 0.19 0.17 0.14
0.01 0.01 0.00 0.00 0.01 0.01 0.00 0.00 0.01 0.02 0.02 0.04 0.06 0.07 0.05 0.03 0.04 0.06 0.11 0.15 0.17 0.16 0.16 0.17 0.14 0.07 0.03 0.02 0.02 0.01 0.01 0.00 0.01 0.06 0.15 0.30 0.49 0.50 0.31 0.20 0.23 0.25 0.26
0.01 0.00 0.00 0.01 0.01 0.01 0.01 0.00 0.02 0.04 0.04 0.04 0.05 0.07 0.08 0.05 0.04 0.09 0.17 0.21 0.21 0.21 0.25 0.31 0.25 0.16 0.08 0.04 0.02 0.02 0.01 0.00 0.03 0.09 0.21 0.33 0.42 0.36 0.23 0.17 0.17 0.24 0.30
0.01 0.00 0.00 0.01 0.01 0.01 0.01 0.02 0.03 0.05 0.05 0.07 0.07 0.08 0.10 0.06 0.04 0.10 0.19 0.25 0.26 0.25 0.25 0.23 0.17 0.12 0.09 0.05 0.03 0.02 0.01 0.01 0.04 0.12 0.26 0.35 0.30 0.18 0.13 0.11 0.11 0.12 0.17
0.00 0.00 0.00 0.00 0.01 0.02 0.02 0.03 0.05 0.03 0.04 0.06 0.06 0.09 0.10 0.06 0.04 0.09 0.17 0.25 0.31 0.27 0.20 0.15 0.11 0.08 0.06 0.05 0.04 0.02 0.03 0.04 0.04 0.10 0.17 0.17 0.15 0.09 0.08 0.08 0.08 0.07 0.07
0.04 0.04 0.03 0.01 0.01 0.02 0.02 0.02 0.02 0.02 0.02 0.03 0.03 0.06 0.08 0.07 0.05 0.09 0.15 0.21 0.20 0.14 0.11 0.10 0.08 0.06 0.04 0.02 0.02 0.02 0.04 0.05 0.05 0.05 0.05 0.04 0.05 0.03 0.02 0.02 0.02 0.03 0.03
0.30 0.53 0.33 0.07 0.02 0.01 0.01 0.01 0.01 0.01 0.00 0.01 0.01 0.02 0.04 0.06 0.08 0.10 0.13 0.11 0.08 0.04 0.02 0.03 0.02 0.02 0.01 0.01 0.01 0.01 0.02 0.02 0.02 0.01 0.00 0.00 0.00 0.00 0.00 0.00 0.00 0.00 0.00
0.52 0.73 0.33 0.11 0.03 0.00 0.00 0.00 0.00 0.00 0.00 0.01 0.01 0.03 0.05 0.09 0.10 0.10 0.07 0.07 0.04 0.02 0.01 0.00 0.00 0.01 0.01 0.00 0.00 0.00 0.00 0.00 0.00 0.00 0.00 0.00 0.00 0.00 0.00 0.00 0.00 0.00 0.00
0.36 0.28 0.16 0.08 0.02 0.00 0.00 0.01 0.01 0.01 0.01 0.02 0.03 0.04 0.08 0.12 0.13 0.09 0.03 0.03 0.02 0.01 0.00 0.00 0.00 0.00 0.00 0.00 0.00 0.00 0.00 0.00 0.00 0.00 0.00 0.00 0.00 0.00 0.00 0.00 0.00 0.00 0.00
0.35 0.13 0.07 0.06 0.04 0.01 0.00 0.01 0.01 0.01 0.01 0.02 0.03 0.04 0.07 0.08 0.06 0.04 0.01 0.01 0.00 0.00 0.00 0.00 0.00 0.00 0.00 0.00 0.00 0.00 0.00 0.00 0.00 0.00 0.00 0.00 0.00 0.00 0.00 0.00 0.00 0.00 0.00
0.22 0.12 0.07 0.07 0.05 0.03 0.01 0.01 0.02 0.02 0.01 0.02 0.03 0.03 0.05 0.05 0.03 0.02 0.01 0.00 0.00 0.00 0.00 0.00 0.00 0.00 0.00 0.00 0.00 0.00 0.00 0.00 0.00 0.00 0.00 0.00 0.00 0.00 0.00 0.00 0.00 0.00 0.00
0.17 0.12 0.10 0.10 0.05 0.03 0.01 0.00 0.01 0.01 0.01 0.01 0.01 0.01 0.02 0.02 0.01 0.01 0.00 0.00 0.00 0.00 0.00 0.00 0.00 0.00 0.00 0.00 0.00 0.00 0.00 0.00 0.00 0.00 0.00 0.00 0.00 0.00 0.00 0.00 0.00 0.01 0.01
0.14 0.13 0.14 0.09 0.03 0.02 0.01 0.01 0.01 0.01 0.02 0.03 0.02 0.01 0.00 0.01 0.01 0.01 0.01 0.01 0.01 0.00 0.00 0.00 0.00 0.00 0.00 0.00 0.00 0.00 0.00 0.00 0.00 0.00 0.00 0.00 0.00 0.00 0.00 0.00 0.01 0.02 0.01
0.15 0.17 0.17 0.07 0.02 0.01 0.00 0.00 0.01 0.02 0.03 0.04 0.03 0.01 0.01 0.00 0.00 0.00 0.00 0.00 0.00 0.00 0.00 0.00 0.00 0.00 0.00 0.00 0.00 0.00 0.01 0.01 0.01 0.02 0.02 0.02 0.02 0.02 0.02 0.02 0.02 0.02 0.02
0.23 0.38 0.32 0.10 0.02 0.00 0.00 0.00 0.01 0.01 0.02 0.02 0.01 0.01 0.00 0.00 0.00 0.00 0.00 0.00 0.00 0.00 0.01 0.01 0.02 0.02 0.03 0.02 0.03 0.03 0.03 0.03 0.04 0.04 0.03 0.03 0.03 0.02 0.02 0.02 0.02 0.02 0.02
0.46 0.81 0.59 0.15 0.03 0.01 0.00 0.00 0.00 0.01 0.01 0.01 0.01 0.00 0.00 0.00 0.00 0.00 0.00 0.00 0.00 0.01 0.03 0.05 0.07 0.08 0.08 0.07 0.07 0.05 0.05 0.04 0.05 0.05 0.04 0.04 0.04 0.03 0.03 0.02 0.01 0.02 0.02
0.85 1.32 0.84 0.25 0.09 0.03 0.02 0.02 0.01 0.01 0.01 0.00 0.00 0.00 0.00 0.01 0.02 0.02 0.02 0.03 0.04 0.06 0.08 0.11 0.13 0.11 0.09 0.07 0.05 0.04 0.04 0.04 0.04 0.04 0.03 0.03 0.03 0.02 0.02 0.01 0.01 0.02 0.03
0.75 0.94 0.65 0.36 0.23 0.12 0.10 0.10 0.07 0.04 0.03 0.03 0.03 0.04 0.07 0.10 0.12 0.11 0.08 0.10 0.09 0.09 0.08 0.07 0.07 0.07 0.07 0.05 0.05 0.03 0.02 0.01 0.01 0.01 0.01 0.01 0.01 0.01 0.01 0.01 0.01 0.01 0.02
0.45 0.50 0.50 0.45 0.39 0.23 0.17 0.15 0.13 0.10 0.07 0.08 0.11 0.18 0.22 0.19 0.13 0.10 0.09 0.06 0.06 0.06 0.06 0.06 0.05 0.03 0.03 0.02 0.03 0.02 0.01 0.00 0.00 0.00 0.00 0.00 0.00 0.00 0.00 0.01 0.00 0.00 0.00
0.34 0.39 0.43 0.43 0.40 0.27 0.18 0.14 0.15 0.17 0.19 0.23 0.29 0.33 0.28 0.19 0.12 0.08 0.05 0.04 0.03 0.02 0.03 0.03 0.03 0.04 0.03 0.01 0.01 0.02 0.02 0.01 0.00 0.00 0.00 0.00 0.00 0.00 0.00 0.00 0.00 0.00 0.00
0.31 0.33 0.32 0.34 0.31 0.26 0.17 0.13 0.17 0.23 0.26 0.27 0.21 0.18 0.13 0.07 0.05 0.03 0.02 0.01 0.01 0.01 0.01 0.01 0.02 0.02 0.02 0.01 0.00 0.01 0.01 0.01 0.02 0.01 0.00 0.00 0.00 0.00 0.00 0.00 0.00 0.00 0.00
0.27 0.27 0.28 0.26 0.22 0.17 0.14 0.12 0.14 0.12 0.09 0.05 0.04 0.02 0.02 0.01 0.00 0.00 0.00 0.01 0.01 0.01 0.01 0.01 0.01 0.01 0.01 0.01 0.01 0.01 0.01 0.01 0.02 0.03 0.02 0.01 0.00 0.00 0.00 0.00 0.00 0.00 0.00
0.18 0.20 0.21 0.17 0.14 0.10 0.08 0.05 0.03 0.02 0.01 0.00 0.00 0.00 0.00 0.00 0.00 0.00 0.00 0.00 0.01 0.01 0.01 0.01 0.01 0.01 0.01 0.01 0.01 0.01 0.02 0.02 0.02 0.03 0.03 0.02 0.01 0.00 0.00 0.00 0.00 0.00 0.01